Погода в Зоново

Россия / Новосибирская область     55°43′49″N   79°19′37″E
темп.,
°C
ветер,
м/с
пор.,
м/с
влажн.,
%
обл.,
%
осадки,
мм/ч
давл.,
гПа
погр.,
м
8 мая, сб
сб801:00+9з410510 0.0 1018198
04:00+8з47570 0.0 1018111
07:00+8зюз410615 0.0 1019201
10:00+15з712485 0.0 1018855
13:00+19зсз9134144 0.0 10172408
16:00+20зсз8143895 0.0 10162804
19:00+21сз6123751 0.0 10152731
22:00+14ссв49543 0.0 1017203
9 мая, вс
вс901:00+11ссв345215 0.0 101874
04:00+7св36661 0.0 1019152
07:00+6св48720 0.0 1020273
10:00+9св56534 0.0 1021662
13:00+12св56390 0.0 10211138
16:00+14св66340 0.0 10201435
19:00+14всв78350 0.0 10201598
22:00+10всв495047 0.0 1022204
10 мая, пн
пн1001:00+7всв6135915 0.0 1023421
04:00+5всв6126821 0.0 1023354
07:00+5всв5107455 0.0 1024338
10:00+9всв68555 0.0 1025909
13:00+13всв67403 0.0 10231389
16:00+15св673498 0.0 10221797
19:00+14св77375 0.0 10211840
22:00+10св511505 0.0 1022315
11 мая, вт
вт1101:00+8св5126028 0.0 1022361
04:00+5ссв49745 0.0 1022209
07:00+5ссв49765 0.0 1023306
10:00+10ссв685230 0.0 10221401
13:00+13св674425 0.0 10221778
16:00+15св57353 0.0 10212104
19:00+15с673333 0.0 10212269
22:00+10с47465 0.0 1021125
12 мая, ср
ср1201:00+7св36590 0.0 1021112
04:00+5всв33695 0.0 102157
07:00+5св246818 0.0 1022124
10:00+10св3348100 0.0 1022737
13:00+13ссв3437100 0.0 10211546
16:00+15ссв3431100 0.0 10201873
19:00+15св3431100 0.0 10201936
22:00+11св224187 0.0 102112